Location: Columbia, SC
(34.0000°N, 81.0300°W)
Time: 11:00:00
(UTC-04:00)

Tiangong 1 - Visible Passes

Search period start: 05 July 2015 00:00
Search period end: 15 July 2015 00:00
Orbit: 373 x 390 km, 42.8° (Epoch: 05 July)

Date Brightness Start Highest point End Pass type
(mag) Time Alt. Az. Time Alt. Az. Time Alt. Az.
05 Jul 2.7 21:11:11 10° W 21:14:08 36° NNW 21:17:05 10° NE visible
05 Jul 4.0 22:49:15 10° NW 22:51:23 17° N 22:53:23 10° NE visible
06 Jul 3.8 21:48:16 10° WNW 21:50:39 19° N 21:53:01 10° NE visible
06 Jul 3.9 23:25:50 10° NW 23:27:42 17° N 23:27:42 17° N visible
07 Jul 3.9 22:25:11 10° NW 22:27:15 16° N 22:29:20 10° NE visible
08 Jul 4.6 00:01:48 10° NW 00:01:53 11° NW 00:01:53 11° NW visible
08 Jul 3.9 21:24:17 10° NW 21:26:27 17° N 21:28:37 10° NE visible
08 Jul 3.4 23:01:23 10° NW 23:03:50 21° NNE 23:03:52 21° NNE visible
09 Jul 3.7 22:00:50 10° NW 22:03:02 17° N 22:05:15 10° NE visible
09 Jul 4.2 23:37:12 10° NW 23:37:57 15° NW 23:37:57 15° NW visible
10 Jul 2.7 22:36:44 10° NW 22:39:30 27° NNE 22:39:53 26° NNE visible
11 Jul 3.3 21:36:14 10° NW 21:38:41 20° NNE 21:41:09 10° ENE visible
11 Jul 3.4 23:12:33 10° WNW 23:13:55 23° NW 23:13:55 23° NW visible
12 Jul 2.0 22:12:00 10° NW 22:15:01 41° NNE 22:15:50 33° ENE visible
13 Jul 2.8 21:11:27 10° NW 21:14:12 26° NNE 21:16:57 10° ENE visible
13 Jul 2.6 22:47:56 10° WNW 22:49:52 32° W 22:49:52 32° W visible
14 Jul 1.1 21:47:11 10° WNW 21:50:20 72° NNE 21:51:49 28° ESE visible
